アトラス彗星

C/2019 L3 ( ATLAS )

English version
Home page
Updated on August 15, 2020

---------------------------------------------------------------------

・ プロフィール

発見日 2019年6月10日
発見光度 18.1等
発見者 Asteroid Terrestrial-Impact Last Alert System (ATLAS) search program

・ 写真集

・ 軌道要素

Epoch 2022 Jan. 21.0 TT = JDT 2459600.5
T 2022 Jan.  9.61269 TT                                 Rudenko
q   3.5544586            (2000.0)            P               Q
z  -0.0004586      Peri.  171.61073     -0.26052796     -0.66630713
 +/-0.0000019      Node   290.79056     +0.83675864     +0.20517395
e   1.0016301      Incl.   48.36123     +0.48162242     -0.71689501
From 596 observations 2019 June 10-2020 Aug. 3, mean residual 0".4.

・ 星図

・ 光度変化

        m1 = 4.2 + 5 logΔ + 10.0 log r

---------------------------------------------------------------------

軌道要素はM.P.E.C. 2020-P19に掲載されたものです。
星図はステラナビゲータ Ver.10 (アストロアーツ) で作成したものです。
光度グラフはComet for Windowsで作成したものです。

---------------------------------------------------------------------

Copyright(C) Seiichi Yoshida (comet@aerith.net). All rights reserved.